Station Historical Data
Daily Summary for February 7, 2017 Units:  Metric    English   Both
« Previous Day
Next Day »
Daily Weekly Monthly Yearly Custom
  High: Low: Average:
Temperature: 12.8 °C -1.3 °C 3.7 °C
Dew Point: 10.3 °C -5.6 °C 1.1 °C
Humidity: 96% 72% 83%
Wind Speed: 30.6km/h 0km/h 8.5km/h
Wind Gust: 64.4km/h - -
Wind- - East
Pressure: 1012.8 hPa 991.8 hPa -
Precipitation: 0 mm    
Historical Graphs
 
 
Tabular Data for February 7, 2017
Time Temperature Dew Point Pressure Wind Wind Speed Wind Gust Humidity Rainfall Rate (Hourly)
00:04 -1.1 °C -5.3 °C 1012.8 hPa NE 1.6 km/h 9.7 km/h 73% 0 mm
00:09 -1.1 °C -5.3 °C 1012.8 hPa ESE 3.2 km/h 9.7 km/h 73% 0 mm
00:14 -1.1 °C -5.3 °C 1012.4 hPa East 9.7 km/h 9.7 km/h 73% 0 mm
00:19 -1.2 °C -5.4 °C 1012.1 hPa ENE 1.6 km/h 9.7 km/h 73% 0 mm
00:24 -1.2 °C -5.4 °C 1012.4 hPa ENE 3.2 km/h 11.3 km/h 73% 0 mm
00:29 -1.2 °C -5.4 °C 1012.1 hPa ENE 3.2 km/h 11.3 km/h 73% 0 mm
00:34 -1.3 °C -5.5 °C 1012.1 hPa ENE 3.2 km/h 9.7 km/h 73% 0 mm
00:39 -1.3 °C -5.5 °C 1012.1 hPa ENE 3.2 km/h 9.7 km/h 73% 0 mm
00:44 -1.3 °C -5.6 °C 1011.7 hPa ENE 4.8 km/h 8 km/h 73% 0 mm
00:49 -1.3 °C -5.6 °C 1011.7 hPa East 4.8 km/h 9.7 km/h 73% 0 mm
00:54 -1.3 °C -5.6 °C 1011.7 hPa East 8 km/h 9.7 km/h 73% 0 mm
00:59 -1.3 °C -5.5 °C 1011.4 hPa ENE 4.8 km/h 9.7 km/h 73% 0 mm
01:04 -1.3 °C -5.5 °C 1011.4 hPa ENE 3.2 km/h 8 km/h 73% 0 mm
01:09 -1.2 °C -5.4 °C 1011.7 hPa NE 4.8 km/h 8 km/h 73% 0 mm
01:14 -1.1 °C -5.3 °C 1011.7 hPa ENE 3.2 km/h 8 km/h 73% 0 mm
01:19 -1.1 °C -5.3 °C 1011.4 hPa NE 4.8 km/h 6.4 km/h 73% 0 mm
01:24 -1.1 °C -5.3 °C 1011.4 hPa NE 1.6 km/h 6.4 km/h 73% 0 mm
01:29 -1 °C -5.2 °C 1011.4 hPa NE 3.2 km/h 6.4 km/h 73% 0 mm
01:34 -0.9 °C -5.2 °C 1011.1 hPa NE 4.8 km/h 9.7 km/h 73% 0 mm
01:39 -0.8 °C -5.1 °C 1011.1 hPa NE 4.8 km/h 9.7 km/h 73% 0 mm
01:44 -0.8 °C -5.1 °C 1011.1 hPa NE 4.8 km/h 8 km/h 73% 0 mm
01:49 -0.8 °C -5 °C 1011.1 hPa NE 4.8 km/h 8 km/h 73% 0 mm
01:54 -0.8 °C -5.1 °C 1011.1 hPa NE 3.2 km/h 8 km/h 73% 0 mm
01:59 -0.7 °C -4.9 °C 1011.1 hPa NE 3.2 km/h 9.7 km/h 73% 0 mm
02:04 -0.7 °C -4.9 °C 1011.1 hPa NE 4.8 km/h 9.7 km/h 73% 0 mm
02:09 -0.6 °C -4.8 °C 1011.1 hPa NNE 4.8 km/h 8 km/h 73% 0 mm
02:14 -0.5 °C -4.7 °C 1010.7 hPa ENE 4.8 km/h 6.4 km/h 73% 0 mm
02:19 -0.4 °C -4.7 °C 1010.7 hPa NE 4.8 km/h 12.9 km/h 73% 0 mm
02:24 -0.3 °C -4.6 °C 1010.7 hPa NNE 3.2 km/h 11.3 km/h 73% 0 mm
02:29 -0.3 °C -4.8 °C 1010.7 hPa NE 1.6 km/h 9.7 km/h 72% 0 mm
02:34 -0.2 °C -4.5 °C 1010.7 hPa NE 3.2 km/h 9.7 km/h 73% 0 mm
02:39 -0.2 °C -4.6 °C 1010.7 hPa NE 4.8 km/h 9.7 km/h 72% 0 mm
02:44 -0.2 °C -4.6 °C 1010.7 hPa NE 4.8 km/h 9.7 km/h 72% 0 mm
02:49 -0.2 °C -4.6 °C 1010.7 hPa NE 4.8 km/h 11.3 km/h 72% 0 mm
02:54 -0.1 °C -4.4 °C 1010.4 hPa NE 4.8 km/h 11.3 km/h 73% 0 mm
02:59 -0.1 °C -4.6 °C 1010.4 hPa NE 6.4 km/h 12.9 km/h 72% 0 mm
03:04 -0.1 °C -4.5 °C 1010.4 hPa NE 6.4 km/h 12.9 km/h 72% 0 mm
03:09 -0.1 °C -4.5 °C 1010 hPa NE 4.8 km/h 11.3 km/h 72% 0 mm
03:14 -0.1 °C -4.5 °C 1010.4 hPa NE 4.8 km/h 12.9 km/h 72% 0 mm
03:19 0 °C -4.3 °C 1010 hPa NE 8 km/h 11.3 km/h 73% 0 mm
03:24 -0.1 °C -4.3 °C 1010 hPa ENE 4.8 km/h 11.3 km/h 73% 0 mm
03:29 0 °C -4.3 °C 1010 hPa NE 4.8 km/h 11.3 km/h 73% 0 mm
03:34 -0.1 °C -4.3 °C 1010 hPa NE 4.8 km/h 11.3 km/h 73% 0 mm
03:39 0 °C -4.3 °C 1010 hPa ENE 6.4 km/h 8 km/h 73% 0 mm
03:44 -0.1 °C -4.3 °C 1010 hPa NE 8 km/h 12.9 km/h 73% 0 mm
03:49 0 °C -4.3 °C 1010 hPa NE 6.4 km/h 12.9 km/h 73% 0 mm
03:54 0 °C -4.3 °C 1010 hPa NE 4.8 km/h 9.7 km/h 73% 0 mm
03:59 0 °C -4.1 °C 1010 hPa NE 4.8 km/h 11.3 km/h 74% 0 mm
04:04 0.1 °C -4.2 °C 1009.7 hPa NE 6.4 km/h 14.5 km/h 73% 0 mm
04:09 0.1 °C -4.2 °C 1009.7 hPa NE 8 km/h 14.5 km/h 73% 0 mm
04:14 0.2 °C -4.1 °C 1009.7 hPa NE 4.8 km/h 16.1 km/h 73% 0 mm
04:19 0.2 °C -4.1 °C 1009.7 hPa NE 8 km/h 16.1 km/h 73% 0 mm
04:24 0.3 °C -4 °C 1009.7 hPa NNE 4.8 km/h 16.1 km/h 73% 0 mm
04:29 0.3 °C -3.9 °C 1009.7 hPa NE 6.4 km/h 12.9 km/h 73% 0 mm
04:34 0.3 °C -3.9 °C 1009.4 hPa NNE 6.4 km/h 17.7 km/h 73% 0 mm
04:39 0.3 °C -3.8 °C 1009.4 hPa NE 8 km/h 14.5 km/h 74% 0 mm
04:44 0.2 °C -3.9 °C 1009.7 hPa NNE 4.8 km/h 11.3 km/h 74% 0 mm
04:49 0.1 °C -4 °C 1009.7 hPa NE 4.8 km/h 14.5 km/h 74% 0 mm
04:54 0.1 °C -4 °C 1009.7 hPa NE 8 km/h 17.7 km/h 74% 0 mm
04:59 0.1 °C -4.1 °C 1009.7 hPa NE 8 km/h 17.7 km/h 74% 0 mm
05:04 0.1 °C -3.8 °C 1009.7 hPa NE 6.4 km/h 12.9 km/h 75% 0 mm
05:09 -0.1 °C -3.9 °C 1009.7 hPa NE 8 km/h 17.7 km/h 75% 0 mm
05:14 -0.1 °C -3.9 °C 1009.4 hPa NE 9.7 km/h 17.7 km/h 75% 0 mm
05:19 -0.1 °C -3.8 °C 1009.4 hPa NE 6.4 km/h 19.3 km/h 76% 0 mm
05:24 -0.1 °C -3.7 °C 1009.4 hPa NE 14.5 km/h 19.3 km/h 77% 0 mm
05:29 -0.2 °C -3.7 °C 1009 hPa NE 9.7 km/h 19.3 km/h 77% 0 mm
05:34 -0.2 °C -3.7 °C 1009.4 hPa NE 9.7 km/h 19.3 km/h 77% 0 mm
05:39 -0.2 °C -3.6 °C 1009.4 hPa ENE 3.2 km/h 16.1 km/h 78% 0 mm
05:44 -0.2 °C -3.7 °C 1009 hPa NE 9.7 km/h 12.9 km/h 77% 0 mm
05:49 -0.2 °C -3.7 °C 1009 hPa ENE 11.3 km/h 20.9 km/h 77% 0 mm
05:54 -0.2 °C -3.7 °C 1008.7 hPa ENE 12.9 km/h 17.7 km/h 77% 0 mm
05:59 -0.2 °C -3.7 °C 1009 hPa NE 9.7 km/h 17.7 km/h 77% 0 mm
06:04 -0.1 °C -3.7 °C 1009 hPa NE 8 km/h 17.7 km/h 77% 0 mm
06:09 -0.1 °C -3.7 °C 1009 hPa NE 8 km/h 17.7 km/h 77% 0 mm
06:14 -0.1 °C -3.7 °C 1009 hPa ENE 8 km/h 20.9 km/h 77% 0 mm
06:19 -0.1 °C -3.8 °C 1009 hPa NE 4.8 km/h 19.3 km/h 76% 0 mm
06:24 -0.1 °C -3.8 °C 1009 hPa NNE 11.3 km/h 19.3 km/h 76% 0 mm
06:29 -0.1 °C -3.6 °C 1009 hPa ENE 6.4 km/h 16.1 km/h 77% 0 mm
06:34 0 °C -3.7 °C 1009 hPa ENE 6.4 km/h 16.1 km/h 76% 0 mm
06:39 0 °C -3.6 °C 1009 hPa ENE 6.4 km/h 14.5 km/h 77% 0 mm
06:44 0.1 °C -3.5 °C 1009 hPa ENE 6.4 km/h 14.5 km/h 77% 0 mm
06:49 0.1 °C -3.4 °C 1008.7 hPa NE 6.4 km/h 17.7 km/h 77% 0 mm
06:54 0.2 °C -3.4 °C 1008.7 hPa NE 8 km/h 17.7 km/h 77% 0 mm
06:59 0.2 °C -3.6 °C 1008.7 hPa ENE 8 km/h 20.9 km/h 76% 0 mm
07:04 0.2 °C -3.5 °C 1008.7 hPa NNE 8 km/h 14.5 km/h 76% 0 mm
07:09 0.3 °C -3.4 °C 1008.7 hPa ENE 8 km/h 17.7 km/h 76% 0 mm
07:14 0.2 °C -3.7 °C 1008.7 hPa ENE 9.7 km/h 17.7 km/h 75% 0 mm
07:19 0.3 °C -3.6 °C 1008.7 hPa NE 4.8 km/h 12.9 km/h 75% 0 mm
07:24 0.3 °C -3.6 °C 1008.4 hPa NE 11.3 km/h 17.7 km/h 75% 0 mm
07:29 0.3 °C -3.6 °C 1008.7 hPa ENE 8 km/h 17.7 km/h 75% 0 mm
07:34 0.3 °C -3.6 °C 1008.7 hPa NE 6.4 km/h 12.9 km/h 75% 0 mm
07:39 0.4 °C -3.6 °C 1008.4 hPa East 4.8 km/h 16.1 km/h 75% 0 mm
07:44 0.4 °C -3.7 °C 1008.4 hPa ENE 8 km/h 17.7 km/h 74% 0 mm
07:49 0.4 °C -3.7 °C 1008.4 hPa ENE 9.7 km/h 20.9 km/h 74% 0 mm
07:54 0.4 °C -3.7 °C 1008 hPa ENE 8 km/h 20.9 km/h 74% 0 mm
07:59 0.4 °C -3.7 °C 1008 hPa ENE 8 km/h 17.7 km/h 74% 0 mm
08:04 0.5 °C -3.4 °C 1008 hPa NE 6.4 km/h 16.1 km/h 75% 0 mm
08:09 0.5 °C -3.4 °C 1008.4 hPa NE 4.8 km/h 17.7 km/h 75% 0 mm
08:14 0.6 °C -3.4 °C 1008.4 hPa ENE 3.2 km/h 9.7 km/h 75% 0 mm
08:19 0.6 °C -3.4 °C 1008.4 hPa NE 6.4 km/h 17.7 km/h 75% 0 mm
08:24 0.6 °C -3.4 °C 1008.4 hPa NE 8 km/h 17.7 km/h 75% 0 mm
08:29 0.6 °C -3.4 °C 1008.4 hPa NE 9.7 km/h 19.3 km/h 75% 0 mm
08:34 0.6 °C -3.6 °C 1008 hPa NE 11.3 km/h 20.9 km/h 74% 0 mm
08:39 0.6 °C -3.4 °C 1008 hPa NE 11.3 km/h 20.9 km/h 75% 0 mm
08:44 0.6 °C -3.6 °C 1008 hPa NE 4.8 km/h 17.7 km/h 74% 0 mm
08:49 0.6 °C -3.6 °C 1007.7 hPa NE 14.5 km/h 22.5 km/h 74% 0 mm
08:54 0.6 °C -3.5 °C 1007.7 hPa ENE 6.4 km/h 16.1 km/h 74% 0 mm
08:59 0.6 °C -3.3 °C 1007.7 hPa NE 8 km/h 17.7 km/h 75% 0 mm
09:04 0.6 °C -3.6 °C 1007.3 hPa East 3.2 km/h 17.7 km/h 74% 0 mm
09:09 0.7 °C -3.3 °C 1007.3 hPa NNE 12.9 km/h 19.3 km/h 75% 0 mm
09:14 0.6 °C -3.3 °C 1007.3 hPa NE 8 km/h 17.7 km/h 75% 0 mm
09:19 0.6 °C -3.3 °C 1007.3 hPa NE 9.7 km/h 17.7 km/h 75% 0 mm
09:24 0.6 °C -3.3 °C 1007 hPa ENE 9.7 km/h 20.9 km/h 75% 0 mm
09:29 0.7 °C -3.3 °C 1007 hPa East 16.1 km/h 17.7 km/h 75% 0 mm
09:34 0.7 °C -3.3 °C 1006.7 hPa ENE 6.4 km/h 20.9 km/h 75% 0 mm
09:39 0.7 °C -3.3 °C 1006.7 hPa ESE 3.2 km/h 12.9 km/h 75% 0 mm
09:44 0.6 °C -3.1 °C 1006.3 hPa ENE 11.3 km/h 17.7 km/h 76% 0 mm
09:49 0.6 °C -2.9 °C 1006.3 hPa ENE 12.9 km/h 19.3 km/h 77% 0 mm
09:54 0.6 °C -3 °C 1006 hPa ENE 8 km/h 19.3 km/h 77% 0 mm
09:59 0.6 °C -3 °C 1006 hPa ENE 8 km/h 17.7 km/h 77% 0 mm
10:04 0.6 °C -2.8 °C 1006 hPa ENE 8 km/h 16.1 km/h 78% 0 mm
10:09 0.7 °C -2.7 °C 1006 hPa ESE 8 km/h 16.1 km/h 78% 0 mm
10:14 0.7 °C -2.6 °C 1006 hPa NNE 3.2 km/h 9.7 km/h 79% 0 mm
10:19 0.6 °C -2.5 °C 1006 hPa NE 8 km/h 11.3 km/h 80% 0 mm
10:24 0.5 °C -2.6 °C 1005.6 hPa NE 8 km/h 20.9 km/h 80% 0 mm
10:29 0.4 °C -2.4 °C 1005.6 hPa NE 9.7 km/h 20.9 km/h 81% 0.25 mm
10:34 0.4 °C -2.3 °C 1005.6 hPa NE 9.7 km/h 20.9 km/h 82% 0.25 mm
10:39 0.4 °C -2.3 °C 1005.6 hPa NE 9.7 km/h 19.3 km/h 82% 0.25 mm
10:44 0.4 °C -2.3 °C 1005.6 hPa NNE 8 km/h 16.1 km/h 82% 0.25 mm
10:49 0.4 °C -2.1 °C 1005.6 hPa NE 11.3 km/h 16.1 km/h 83% 0.25 mm
10:54 0.4 °C -2.1 °C 1005.3 hPa NNE 4.8 km/h 16.1 km/h 83% 0.25 mm
10:59 0.4 °C -2.2 °C 1005.3 hPa NE 9.7 km/h 17.7 km/h 83% 0.25 mm
11:04 0.4 °C -2 °C 1005.3 hPa NE 9.7 km/h 17.7 km/h 84% 0.51 mm
11:09 0.3 °C -2.1 °C 1005 hPa NNE 8 km/h 20.9 km/h 84% 0.76 mm
11:14 0.2 °C -2 °C 1005 hPa NE 9.7 km/h 19.3 km/h 85% 1.02 mm
11:19 0.2 °C -1.8 °C 1004.6 hPa ENE 6.4 km/h 17.7 km/h 86% 1.02 mm
11:24 0.2 °C -1.8 °C 1004.6 hPa ENE 12.9 km/h 22.5 km/h 86% 1.27 mm
11:29 0.2 °C -1.7 °C 1004.6 hPa ENE 8 km/h 22.5 km/h 87% 1.02 mm
11:34 0.3 °C -1.6 °C 1004.3 hPa ENE 8 km/h 17.7 km/h 87% 1.27 mm
11:39 0.3 °C -1.4 °C 1004.3 hPa ENE 8 km/h 17.7 km/h 88% 1.27 mm
11:44 0.3 °C -1.4 °C 1004.3 hPa ENE 9.7 km/h 17.7 km/h 88% 1.52 mm
11:49 0.4 °C -1.4 °C 1003.9 hPa ENE 4.8 km/h 14.5 km/h 88% 1.78 mm
11:54 0.3 °C -1.4 °C 1003.9 hPa NE 3.2 km/h 12.9 km/h 88% 1.78 mm
11:59 0.3 °C -1.3 °C 1003.6 hPa NE 6.4 km/h 14.5 km/h 89% 1.78 mm
12:04 0.4 °C -1.2 °C 1003.6 hPa NE 6.4 km/h 14.5 km/h 89% 1.78 mm
12:09 0.4 °C -1.2 °C 1003.3 hPa East 11.3 km/h 12.9 km/h 89% 1.52 mm
12:14 0.4 °C -1.2 °C 1003.3 hPa ENE 3.2 km/h 12.9 km/h 89% 1.27 mm
12:19 0.4 °C -1 °C 1002.9 hPa NE 3.2 km/h 14.5 km/h 90% 1.52 mm
12:24 0.6 °C -0.9 °C 1002.9 hPa NE 3.2 km/h 12.9 km/h 90% 1.27 mm
12:29 0.6 °C -0.8 °C 1002.9 hPa ENE 4.8 km/h 12.9 km/h 90% 1.52 mm
12:34 0.7 °C -0.8 °C 1002.6 hPa ENE 6.4 km/h 12.9 km/h 90% 1.52 mm
12:39 0.7 °C -0.7 °C 1002.6 hPa NE 8 km/h 14.5 km/h 90% 1.52 mm
12:44 0.7 °C -0.7 °C 1002.3 hPa ENE 8 km/h 14.5 km/h 90% 1.52 mm
12:49 0.8 °C -0.5 °C 1002.3 hPa NE 6.4 km/h 14.5 km/h 91% 1.27 mm
12:54 0.8 °C -0.5 °C 1001.9 hPa NE 6.4 km/h 14.5 km/h 91% 1.52 mm
12:59 0.8 °C -0.5 °C 1001.6 hPa NE 6.4 km/h 12.9 km/h 91% 1.78 mm
13:04 0.8 °C -0.5 °C 1001.6 hPa NE 8 km/h 14.5 km/h 91% 1.52 mm
13:09 0.8 °C -0.5 °C 1001.2 hPa NE 11.3 km/h 16.1 km/h 91% 1.78 mm
13:14 0.8 °C -0.5 °C 1000.9 hPa NE 11.3 km/h 16.1 km/h 91% 2.03 mm
13:19 0.8 °C -0.5 °C 1000.9 hPa East 11.3 km/h 14.5 km/h 91% 2.03 mm
13:24 0.8 °C -0.4 °C 1000.6 hPa ENE 3.2 km/h 17.7 km/h 91% 2.29 mm
13:29 0.9 °C -0.3 °C 1000.2 hPa NE 11.3 km/h 12.9 km/h 92% 2.29 mm
13:34 1 °C -0.2 °C 999.9 hPa NE 3.2 km/h 12.9 km/h 92% 2.29 mm
13:39 1.1 °C -0.1 °C 999.9 hPa NE 6.4 km/h 12.9 km/h 92% 2.29 mm
13:44 1.2 °C 0 °C 999.5 hPa ENE 8 km/h 12.9 km/h 92% 2.03 mm
13:49 1.3 °C 0.1 °C 999.2 hPa ENE 6.4 km/h 16.1 km/h 92% 2.29 mm
13:54 1.3 °C 0.2 °C 999.2 hPa ENE 6.4 km/h 16.1 km/h 92% 2.03 mm
13:59 1.5 °C 0.3 °C 998.9 hPa ENE 6.4 km/h 12.9 km/h 92% 1.78 mm
14:04 1.6 °C 0.4 °C 998.9 hPa ENE 6.4 km/h 12.9 km/h 92% 1.78 mm
14:09 1.7 °C 0.6 °C 998.9 hPa ENE 4.8 km/h 9.7 km/h 92% 1.52 mm
14:14 1.8 °C 0.7 °C 998.9 hPa NE 4.8 km/h 12.9 km/h 92% 1.27 mm
14:19 1.8 °C 0.7 °C 998.2 hPa NE 8 km/h 11.3 km/h 92% 1.02 mm
14:24 1.9 °C 0.8 °C 998.5 hPa ENE 3.2 km/h 12.9 km/h 92% 1.02 mm
14:29 2.1 °C 1.1 °C 998.2 hPa NE 8 km/h 11.3 km/h 93% 0.76 mm
14:34 2 °C 0.8 °C 998.2 hPa NNE 6.4 km/h 11.3 km/h 92% 0.51 mm
14:39 1.9 °C 0.7 °C 998.2 hPa East 8 km/h 11.3 km/h 92% 0.51 mm
14:44 2 °C 0.8 °C 997.9 hPa ENE 4.8 km/h 11.3 km/h 92% 0.51 mm
14:49 2 °C 0.8 °C 997.5 hPa ENE 4.8 km/h 16.1 km/h 92% 0.25 mm
14:54 2 °C 0.8 °C 997.5 hPa NE 8 km/h 16.1 km/h 92% 0.25 mm
14:59 2 °C 0.8 °C 997.2 hPa NE 6.4 km/h 16.1 km/h 92% 0.25 mm
15:04 2 °C 0.8 °C 997.2 hPa NE 6.4 km/h 12.9 km/h 92% 0.51 mm
15:09 2 °C 1 °C 996.8 hPa NE 6.4 km/h 12.9 km/h 93% 1.02 mm
15:14 2.1 °C 1.1 °C 996.8 hPa NE 6.4 km/h 11.3 km/h 93% 1.27 mm
15:19 2.1 °C 1.1 °C 996.5 hPa East 9.7 km/h 12.9 km/h 93% 1.27 mm
15:24 2.2 °C 1.2 °C 996.5 hPa NE 3.2 km/h 12.9 km/h 93% 1.02 mm
15:29 2.2 °C 1.2 °C 996.5 hPa NE 4.8 km/h 12.9 km/h 93% 1.27 mm
15:34 2.3 °C 1.3 °C 996.5 hPa NE 4.8 km/h 9.7 km/h 93% 1.27 mm
15:39 2.4 °C 1.4 °C 996.5 hPa NE 3.2 km/h 8 km/h 93% 1.27 mm
15:44 2.6 °C 1.6 °C 996.5 hPa Calm   8 km/h 93% 1.27 mm
15:49 2.7 °C 1.7 °C 996.5 hPa NE 4.8 km/h 4.8 km/h 93% 1.27 mm
15:54 2.8 °C 1.9 °C 996.2 hPa Calm   8 km/h 94% 1.52 mm
15:59 2.7 °C 1.7 °C 996.2 hPa NE 3.2 km/h 9.7 km/h 93% 1.78 mm
16:04 2.7 °C 1.7 °C 996.2 hPa NE 3.2 km/h 9.7 km/h 93% 1.78 mm
16:09 2.7 °C 1.8 °C 996.2 hPa NE 3.2 km/h 6.4 km/h 94% 1.27 mm
16:14 2.8 °C 1.9 °C 995.8 hPa NE 3.2 km/h 4.8 km/h 94% 1.27 mm
16:19 2.8 °C 1.9 °C 995.8 hPa ENE 1.6 km/h 4.8 km/h 94% 1.52 mm
16:24 3 °C 2.1 °C 995.5 hPa ENE 1.6 km/h 3.2 km/h 94% 1.52 mm
16:29 3.2 °C 2.3 °C 995.5 hPa ENE 3.2 km/h 4.8 km/h 94% 1.52 mm
16:34 3.3 °C 2.4 °C 995.5 hPa ENE 1.6 km/h 4.8 km/h 94% 1.78 mm
16:39 3.5 °C 2.6 °C 995.1 hPa ENE 1.6 km/h 3.2 km/h 94% 2.03 mm
16:44 3.7 °C 2.8 °C 995.1 hPa Calm   3.2 km/h 94% 2.29 mm
16:49 3.8 °C 2.9 °C 995.1 hPa Calm     94% 2.29 mm
16:54 4.1 °C 3.3 °C 994.8 hPa Calm     95% 2.29 mm
16:59 4.3 °C 3.6 °C 994.8 hPa Calm     95% 2.29 mm
17:04 4.8 °C 4.1 °C 994.8 hPa SSE 1.6 km/h 4.8 km/h 95% 2.03 mm
17:09 5.3 °C 4.6 °C 994.8 hPa SSE 1.6 km/h 6.4 km/h 95% 2.29 mm
17:14 6.4 °C 5.8 °C 994.5 hPa South 3.2 km/h 8 km/h 96% 2.03 mm
17:19 7.4 °C 6.8 °C 994.5 hPa South 4.8 km/h 11.3 km/h 96% 2.03 mm
17:24 8.2 °C 7.6 °C 994.1 hPa South 6.4 km/h 14.5 km/h 96% 2.03 mm
17:29 8.9 °C 8.3 °C 994.1 hPa South 8 km/h 17.7 km/h 96% 2.03 mm
17:34 9.3 °C 8.7 °C 994.1 hPa SSW 8 km/h 17.7 km/h 96% 2.03 mm
17:39 9.5 °C 8.9 °C 994.1 hPa SSW 9.7 km/h 24.1 km/h 96% 1.78 mm
17:44 9.7 °C 9.1 °C 994.1 hPa SW 19.3 km/h 20.9 km/h 96% 1.78 mm
17:49 9.8 °C 9.1 °C 994.1 hPa WSW 17.7 km/h 24.1 km/h 95% 2.03 mm
17:54 9.9 °C 9.2 °C 993.8 hPa SSE 12.9 km/h 24.1 km/h 95% 2.03 mm
17:59 10 °C 9.2 °C 993.8 hPa SSW 11.3 km/h 19.3 km/h 95% 1.78 mm
18:04 10.1 °C 9.1 °C 993.8 hPa South 8 km/h 17.7 km/h 94% 1.78 mm
18:09 10.2 °C 9.2 °C 993.8 hPa South 9.7 km/h 20.9 km/h 94% 1.52 mm
18:14 10.3 °C 9.3 °C 993.8 hPa South 12.9 km/h 22.5 km/h 94% 1.78 mm
18:19 10.3 °C 9.4 °C 993.8 hPa SSW 11.3 km/h 22.5 km/h 94% 1.52 mm
18:24 10.4 °C 9.4 °C 993.8 hPa SSW 11.3 km/h 22.5 km/h 94% 1.52 mm
18:29 10.5 °C 9.4 °C 993.8 hPa SSW 12.9 km/h 27.4 km/h 93% 1.27 mm
18:34 10.6 °C 9.5 °C 993.5 hPa SSW 12.9 km/h 27.4 km/h 93% 1.02 mm
18:39 10.7 °C 9.6 °C 993.5 hPa SSW 12.9 km/h 29 km/h 93% 1.02 mm
18:44 10.9 °C 9.7 °C 993.5 hPa SW 12.9 km/h 29 km/h 92% 1.02 mm
18:49 11 °C 9.6 °C 993.5 hPa SSW 9.7 km/h 22.5 km/h 91% 0.76 mm
18:54 11.2 °C 9.8 °C 993.5 hPa SSW 12.9 km/h 29 km/h 91% 0.51 mm
18:59 11.2 °C 9.7 °C 993.5 hPa South 8 km/h 22.5 km/h 90% 0.51 mm
19:04 11.3 °C 9.7 °C 993.5 hPa SSE 17.7 km/h 25.7 km/h 90% 0.76 mm
19:09 11.3 °C 9.6 °C 993.1 hPa SSW 6.4 km/h 32.2 km/h 89% 0.76 mm
19:14 11.3 °C 9.6 °C 993.1 hPa SSW 8 km/h 25.7 km/h 89% 0.51 mm
19:19 11.4 °C 9.7 °C 993.1 hPa SW 12.9 km/h 27.4 km/h 89% 0.51 mm
19:24 11.3 °C 9.6 °C 993.1 hPa SSW 6.4 km/h 27.4 km/h 89% 0.76 mm
19:29 11.4 °C 9.7 °C 993.1 hPa SSW 12.9 km/h 27.4 km/h 89% 0.76 mm
19:34 11.5 °C 9.6 °C 993.1 hPa SSW 12.9 km/h 24.1 km/h 88% 0.76 mm
19:39 11.4 °C 9.7 °C 993.1 hPa SSW 11.3 km/h 27.4 km/h 89% 0.76 mm
19:44 11.6 °C 9.8 °C 993.1 hPa SSW 11.3 km/h 32.2 km/h 89% 0.51 mm
19:49 11.7 °C 9.9 °C 993.1 hPa SSW 12.9 km/h 38.6 km/h 89% 0.76 mm
19:54 11.7 °C 9.9 °C 992.8 hPa SSW 12.9 km/h 38.6 km/h 89% 0.76 mm
19:59 11.7 °C 9.9 °C 992.8 hPa SW 11.3 km/h 25.7 km/h 89% 1.02 mm
20:04 11.7 °C 9.9 °C 992.8 hPa South 9.7 km/h 27.4 km/h 89% 0.76 mm
20:09 11.7 °C 9.8 °C 992.8 hPa SSW 14.5 km/h 20.9 km/h 88% 0.76 mm
20:14 11.8 °C 9.8 °C 992.4 hPa SSW 14.5 km/h 22.5 km/h 88% 0.76 mm
20:19 11.8 °C 9.8 °C 992.4 hPa South 25.7 km/h 25.7 km/h 88% 1.02 mm
20:24 11.9 °C 9.9 °C 992.4 hPa ESE 8 km/h 25.7 km/h 88% 0.76 mm
20:29 11.9 °C 9.9 °C 992.4 hPa SSW 9.7 km/h 24.1 km/h 88% 0.76 mm
20:34 11.9 °C 10 °C 992.4 hPa SSW 12.9 km/h 19.3 km/h 88% 0.76 mm
20:39 11.9 °C 10 °C 992.4 hPa SSW 11.3 km/h 29 km/h 88% 0.76 mm
20:44 12.1 °C 10 °C 992.1 hPa SSW 12.9 km/h 29 km/h 87% 0.76 mm
20:49 12.3 °C 10.2 °C 992.1 hPa SSW 14.5 km/h 25.7 km/h 87% 0.51 mm
20:54 12.2 °C 10.1 °C 992.1 hPa SSW 12.9 km/h 24.1 km/h 87% 0.51 mm
20:59 12.3 °C 10 °C 992.1 hPa SSW 12.9 km/h 35.4 km/h 86% 0.25 mm
21:04 12.2 °C 10.1 °C 991.8 hPa South 3.2 km/h 22.5 km/h 87% 0.76 mm
21:09 12.1 °C 10.2 °C 991.8 hPa SSW 11.3 km/h 27.4 km/h 88% 1.02 mm
21:14 12.1 °C 10.1 °C 992.1 hPa South 22.5 km/h 25.7 km/h 88% 1.02 mm
21:19 12.1 °C 10.1 °C 992.1 hPa SW 19.3 km/h 27.4 km/h 88% 1.02 mm
21:24 12 °C 10.1 °C 992.1 hPa South 14.5 km/h 24.1 km/h 88% 1.02 mm
21:29 12 °C 10.2 °C 992.1 hPa SW 14.5 km/h 29 km/h 89% 1.02 mm
21:34 12 °C 10.2 °C 992.1 hPa South 9.7 km/h 35.4 km/h 89% 1.02 mm
21:39 12.1 °C 10.3 °C 992.1 hPa SW 25.7 km/h 38.6 km/h 89% 1.27 mm
21:44 12.1 °C 10.2 °C 992.1 hPa SSW 14.5 km/h 38.6 km/h 88% 1.27 mm
21:49 12.2 °C 10.2 °C 992.1 hPa SSW 14.5 km/h 30.6 km/h 88% 1.27 mm
21:54 12.1 °C 10.2 °C 992.1 hPa SSW 12.9 km/h 27.4 km/h 88% 1.27 mm
21:59 12.1 °C 10.2 °C 992.1 hPa SSW 11.3 km/h 24.1 km/h 88% 1.27 mm
22:04 12.1 °C 10.2 °C 992.1 hPa SSW 11.3 km/h 30.6 km/h 88% 0.76 mm
22:09 12.1 °C 10 °C 992.1 hPa SSW 11.3 km/h 30.6 km/h 87% 0.76 mm
22:14 12.1 °C 10.2 °C 992.1 hPa SW 11.3 km/h 27.4 km/h 88% 0.51 mm
22:19 12.1 °C 10.1 °C 992.1 hPa SSW 17.7 km/h 27.4 km/h 88% 0.51 mm
22:24 12.2 °C 10.1 °C 991.8 hPa SSE 19.3 km/h 33.8 km/h 87% 0.51 mm
22:29 12.3 °C 10.2 °C 992.1 hPa SSW 16.1 km/h 40.2 km/h 87% 0.51 mm
22:34 12.4 °C 10.1 °C 992.1 hPa SW 17.7 km/h 29 km/h 86% 0.51 mm
22:39 12.4 °C 10.1 °C 992.1 hPa SW 24.1 km/h 24.1 km/h 86% 0.25 mm
22:44 12.5 °C 10.1 °C 992.1 hPa SW 16.1 km/h 33.8 km/h 85% 0.25 mm
22:49 12.6 °C 10.1 °C 992.1 hPa SSW 11.3 km/h 27.4 km/h 85% 0.25 mm
22:54 12.7 °C 10.1 °C 992.1 hPa SW 16.1 km/h 41.8 km/h 84% 0.25 mm
22:59 12.7 °C 10.1 °C 992.1 hPa SW 17.7 km/h 41.8 km/h 84% 0.25 mm
23:04 12.7 °C 9.9 °C 992.1 hPa SW 19.3 km/h 35.4 km/h 83% 0.25 mm
23:09 12.8 °C 10 °C 992.1 hPa SW 20.9 km/h 43.5 km/h 83% 0 mm
23:14 12.8 °C 9.9 °C 992.1 hPa WSW 17.7 km/h 35.4 km/h 83% 0 mm
23:19 12.8 °C 9.9 °C 992.1 hPa WSW 17.7 km/h 38.6 km/h 83% 0 mm
23:24 12.7 °C 9.9 °C 992.1 hPa SW 20.9 km/h 40.2 km/h 83% 0 mm
23:29 12.7 °C 9.7 °C 992.1 hPa WSW 27.4 km/h 41.8 km/h 82% 0 mm
23:34 12.7 °C 9.7 °C 992.1 hPa SW 20.9 km/h 43.5 km/h 82% 0 mm
23:39 12.6 °C 9.9 °C 992.4 hPa WSW 30.6 km/h 40.2 km/h 84% 0.25 mm
23:44 12.3 °C 9.5 °C 992.8 hPa WSW 14.5 km/h 53.1 km/h 83% 0.25 mm
23:49 11.9 °C 9.1 °C 992.4 hPa WSW 24.1 km/h 59.5 km/h 83% 0.25 mm
23:54 11.4 °C 8.8 °C 992.8 hPa West 14.5 km/h 64.4 km/h 84% 0.25 mm
23:59 11.2 °C 8.6 °C 992.8 hPa WSW 24.1 km/h 64.4 km/h 84% 0.25 mm
Buffalo, New York, USA
Compliments of Weather Underground - 2.5 mb